Regional Weather Roundup
Issued by NWS

Home | Current Version | Previous Version | Text Only | Print | Product List | Glossary Off
Versions: 1 2 3 4 5 6 7 8 9 10 11 12 13 14 15 16 17 18 19 20 21 22 23 24 25 26 27 28 29 30 31 32 33 34 35 36 37 38 39 40 41 42 43 44 45 46 47 48 49 50

000
ASUS43 KFSD 242010
RWRSD

WEATHER ROUNDUP FOR SOUTH DAKOTA
NATIONAL WEATHER SERVICE SIOUX FALLS SD
300 PM CDT SUN SEP 24 2017

NOTE: "FAIR" INDICATES FEW OR NO CLOUDS BELOW 12,000 FEET WITH NO
SIGNIFICANT WEATHER AND/OR OBSTRUCTIONS TO VISIBILITY.


SDZ001>005-009-010-012>017-242100-
NORTHWEST AND NORTH CENTRAL SOUTH DAKOTA

CITY           SKY/WX    TMP DP  RH WIND       PRES   REMARKS
BUFFALO          N/A     48  41  76 NW12      30.02R
FAITH            N/A     51  47  86 N16       30.04S
MOBRIDGE       CLOUDY    53  48  83 NW15G22   29.97S
$$

SDZ012>016-024>037-041>051-057-063-072>074-242100-
SOUTHWEST AND SOUTH CENTRAL SOUTH DAKOTA

CITY           SKY/WX    TMP DP  RH WIND       PRES   REMARKS
RAPID CTY ARPT CLOUDY    52  43  71 N16       30.06F
PIERRE         CLOUDY    55  48  77 NW15      29.98S
CUSTER         CLOUDY    44  39  82 SE5       30.04F
ELLSWORTH AFB  CLOUDY    50  43  78 N15       30.05
PHILIP         CLOUDY    53  47  79 NW12      30.05R
PINE RIDGE     CLOUDY    51  45  79 NE10      30.05S
SPEARFISH      LGT RAIN  43  43 100 NW6       30.09S
WINNER         CLOUDY    56  52  86 NW13      30.00S
$$

SDZ004>011-016>023-039-040-242100-
NORTHEAST SOUTH DAKOTA

CITY           SKY/WX    TMP DP  RH WIND       PRES   REMARKS
ABERDEEN       CLOUDY    54  53  97 N12       29.92F
WATERTOWN      LGT RAIN  59  58  96 W13       29.90S
BROOKINGS      CLOUDY    62  59  90 W13       29.91R
SISSETON         N/A     63  60  90 NW9       29.86F
$$

SDZ017-020-022-023-036>040-048>070-242100-
SOUTHEAST SOUTH DAKOTA

CITY           SKY/WX    TMP DP  RH WIND       PRES   REMARKS
SIOUX FALLS    LGT RAIN  67  60  78 W12       29.90R
HURON          LGT RAIN  55  54  96 NW7       29.96R
CHAMBERLAIN    CLOUDY    56  54  90 NW15      29.98S
MITCHELL       LGT RAIN  58  55  90 NW12      29.95S
YANKTON        CLOUDY    64  57  78 NW16      29.93S
$$

ABBREVIATIONS USED IN REMARKS
   TC - TEMPERATURE IN CELSIUS
  WCI - WIND CHILL INDEX
   HX - HEAT INDEX
  VSB - VISIBILITY





USA.gov is the U.S. government's official web portal to all federal, state and local government web resources and services.